[[{"header":{"parameterUnit":"m.s-1","parameterCategory":1,"la1":30.2991,"la2":30.254,"lo1":-89.0895,"lo2":-89.0444,"dy":0.0017,"dx":0.0017,"nx":28,"ny":28,"refTime":"2024-05-21T09:00:00:Z","depth":0,"parameterNumber":2,"parameterNumberName":"U-component_of_WINDS"},"data":[0,0,0,0,0,0,0,0,0,0,0,0,0,0,0,0,0,0,0,0,0,0,0,0,0,0,0,0,0,0,0,0,0,0,0,0,0,0,0,0,0,0,0,0,0,0,0,0,0,0,0,0,0,0,0,0,0,0,-2.4996,-2.4997,0,-2.5139,-2.5141,-2.5142,-2.5154,-2.5153,-2.5151,-2.515,-2.5298,-2.5303,-2.5309,0,0,0,0,0,0,0,0,0,0,0,0,0,-2.4735,-2.474,-2.4996,-2.4998,-2.4999,-2.5139,-2.5141,-2.5143,-2.5155,-2.5153,-2.5151,-2.5149,-2.5296,-2.5303,-2.5309,0,0,0,0,0,0,0,0,0,0,0,0,0,-2.486,-2.4741,-2.4996,-2.5022,-2.5026,-2.5138,-2.5141,-2.5143,-2.5155,-2.5153,-2.515,-2.5148,-2.5294,-2.5302,-2.531,-2.5406,0,0,-2.5335,-2.5338,0,0,0,0,0,0,0,0,-2.4853,-2.487,-2.5016,-2.5021,-2.5025,-2.5126,-2.5103,-2.5231,-2.5156,-2.5106,-2.515,-2.5147,-2.5243,-2.5255,-2.5287,-2.5413,-2.5419,-2.5335,-2.534,-2.5344,-2.5346,0,0,0,0,0,0,0,-2.4844,-2.4864,-2.5053,-2.5019,-2.5024,-2.5028,-2.5043,-2.5127,-2.5186,-2.511,-2.5111,-2.5128,-2.5245,-2.5279,-2.5291,-2.5422,-2.5335,-2.5342,-2.5347,-2.535,-2.5634,-2.5636,0,0,0,0,0,0,-2.483,-2.4856,-2.5048,-2.5057,-2.4931,-2.5034,-2.5051,-2.5096,-2.5185,-2.5196,-2.513,-2.5128,-2.5267,-2.5281,-2.5296,-2.5414,-2.5344,-2.5351,-2.5356,-2.5631,-2.5635,-2.5637,0,0,0,0,0,0,-2.4825,-2.4847,-2.5042,-2.4957,-2.4982,-2.5041,-2.5092,-2.51,-2.5135,-2.52,-2.521,-2.5154,-2.5265,-2.5285,-2.5379,-2.5419,-2.5355,-2.5362,-2.5628,-2.5632,-2.5636,-2.5651,0,0,0,0,0,0,-2.4817,-2.4845,-2.4882,-2.4958,-2.4987,-2.5122,-2.5094,-2.5105,-2.5148,-2.5147,-2.5225,-2.5236,-2.5265,-2.5366,-2.5387,-2.5429,-2.5368,-2.5625,-2.563,-2.5635,-2.5647,-2.5655,-2.5662,0,0,0,0,0,-2.4808,-2.4881,-2.4884,-2.4907,-2.5033,-2.5124,-2.5141,-2.5172,-2.5152,-2.5189,-2.5231,-2.5234,-2.5412,-2.5376,-2.5399,-2.5444,-2.5622,-2.5628,-2.5634,-2.5644,-2.5654,-2.5662,0,0,0,0,0,0,-2.4809,-2.4891,-2.4895,-2.4995,-2.5052,-2.5126,-2.5174,-2.5181,-2.5246,-2.5243,-2.5279,-2.5297,-2.539,-2.5427,-2.5385,-2.5542,-2.5515,-2.5526,-2.5514,-2.5524,-2.5531,-2.552,-2.5375,0,0,0,0,0,-2.482,-2.4886,-2.4955,-2.5037,-2.5065,-2.5115,-2.5156,-2.5175,-2.5236,-2.5261,-2.5309,-2.5369,-2.5439,-2.5484,-2.5551,-2.5653,-2.567,-2.5696,-2.5703,-2.5709,-2.5718,-2.5774,-2.5786,-2.5657,-2.5657,-2.5657,0,0,-2.4845,-2.4898,-2.4938,-2.5038,-2.5085,-2.5153,-2.5135,-2.5208,-2.5259,-2.5272,-2.5363,-2.5401,-2.5471,-2.5569,-2.5615,-2.5603,-2.5757,-2.5717,-2.5721,-2.5726,-2.5781,-2.5794,-2.5804,-2.5661,-2.5661,-2.566,0,0,-2.4925,-2.4972,-2.5045,-2.5092,-2.5163,-2.5196,-2.5213,-2.5286,-2.5312,-2.5404,-2.5415,-2.5477,-2.5596,-2.5645,-2.5685,-2.5784,-2.5789,-2.5806,-2.5844,-2.5898,-2.5908,-2.5918,-2.5952,-2.5965,-2.5814,-2.5814,-2.5814,0,-2.4947,-2.505,-2.5081,-2.5154,-2.5198,-2.5212,-2.5286,-2.5331,-2.5421,-2.5451,-2.5436,-2.5586,-2.5634,-2.5743,-2.5767,-2.58,-2.5821,-2.5796,-2.5904,-2.5914,-2.5923,-2.5957,-2.597,-2.5816,-2.5816,-2.5815,-2.5815,0,-2.5073,-2.5144,-2.5195,-2.528,-2.533,-2.5403,-2.5446,-2.5493,-2.5508,-2.5542,-2.5636,-2.5694,-2.5774,-2.5801,-2.5817,-2.5914,-2.5904,-2.5897,-2.587,-2.5936,-2.5968,-2.5982,-2.5818,-2.5817,-2.5817,-2.5817,0,0,-2.5157,-2.5259,-2.5277,-2.5316,-2.5396,-2.5451,-2.5526,-2.5603,-2.5642,-2.5704,-2.5767,-2.5867,-2.5861,-2.5907,-2.5929,-2.5977,-2.6051,-2.5963,-2.5966,-2.5977,-2.6161,-2.6165,-2.6179,-2.6055,-2.6058,-2.606,-2.6154,0,-2.5245,-2.5376,-2.5407,-2.552,-2.5586,-2.5601,-2.5666,-2.5722,-2.5756,-2.5818,-2.5856,-2.5927,-2.5913,-2.5941,-2.5989,-2.6031,-2.6088,-2.6025,-2.6114,-2.6117,-2.6095,-2.6196,-2.6201,-2.6288,-2.6167,-2.617,-2.6171,0,-2.5365,-2.5429,-2.5548,-2.5619,-2.5648,-2.5705,-2.5778,-2.5837,-2.5902,-2.5923,-2.5975,-2.5992,-2.607,-2.604,-2.6148,-2.6105,-2.6143,-2.617,-2.6174,-2.6182,-2.6147,-2.6207,-2.6316,-2.6329,-2.6191,-2.619,-2.6188,0,-2.5413,-2.5529,-2.5615,-2.5648,-2.5733,-2.5773,-2.5811,-2.5873,-2.5917,-2.5982,-2.6011,-2.6084,-2.6124,-2.6181,-2.6217,-2.6192,-2.6323,-2.6296,-2.6343,-2.6342,-2.6369,-2.6366,-2.6485,-2.6395,-2.6395,-2.6395,-2.6394,0,-2.5508,-2.558,-2.5638,-2.5691,-2.5772,-2.5808,-2.5887,-2.5925,-2.5981,-2.6041,-2.606,-2.6117,-2.6161,-2.6225,-2.6254,-2.6339,-2.6357,-2.6377,-2.6384,-2.6375,-2.6372,-2.64,-2.6395,-2.6398,-2.6397,-2.6397,-2.6396,0,-2.5575,-2.5617,-2.5711,-2.5784,-2.5804,-2.5861,-2.5924,-2.5976,-2.6011,-2.6088,-2.6108,-2.6163,-2.6239,-2.6281,-2.6376,-2.6396,-2.6491,-2.6495,-2.6468,-2.6471,-2.6516,-2.6511,-2.6655,-2.6676,-2.6573,-2.6574,-2.6575,0,-2.5633,-2.5688,-2.5767,-2.5809,-2.5847,-2.5914,-2.5959,-2.5997,-2.6044,-2.6121,-2.6164,-2.6241,-2.6304,-2.6424,-2.6473,-2.6546,-2.6551,-2.6597,-2.6562,-2.6552,-2.6551,-2.6547,-2.6553,-2.6603,-2.6603,-2.6604,-2.6605,0,-2.573,-2.5748,-2.5812,-2.5884,-2.5937,-2.5996,-2.6054,-2.6087,-2.6134,-2.6186,-2.6263,-2.6312,-2.6409,-2.6485,-2.6561,-2.6601,-2.6611,-2.6616,-2.663,-2.6621,-2.6603,-2.6613,-2.6484,-2.6612,-2.6611,-2.6611,-2.661,-2.661,-2.5794,-2.5844,-2.5907,-2.5978,-2.6025,-2.6079,-2.6132,-2.6173,-2.6238,-2.6319,-2.6338,-2.6419,-2.6483,-2.6587,-2.6628,-2.6693,-2.6684,-2.6706,-2.6711,-2.6715,-2.6717,-2.6594,-2.6707,-2.6707,-2.6707,-2.6707,-2.6707,0,-2.5891,-2.5933,-2.5998,-2.6078,-2.6134,-2.6138,-2.6203,-2.625,-2.632,-2.6379,-2.644,-2.6529,-2.6602,-2.6657,-2.6733,-2.6774,-2.678,-2.6792,-2.6789,-2.6798,-2.672,-2.67,-2.6786,-2.6786,-2.6786,-2.6786,-2.6786,-2.6786,-2.5948,-2.6033,-2.6058,-2.6167,-2.6209,-2.6287,-2.6324,-2.6374,-2.642,-2.6518,-2.6579,-2.6614,-2.6672,-2.6751,-2.6819,-2.6833,-2.686,-2.6871,-2.6886,-2.6812,-2.6804,-2.6795,-2.6776,-2.6877,-2.6877,-2.6959,-2.6959,-2.696]},{"header":{"parameterUnit":"m.s-1","parameterCategory":1,"la1":30.2991,"la2":30.254,"lo1":-89.0895,"lo2":-89.0444,"dy":0.0017,"dx":0.0017,"nx":28,"ny":28,"refTime":"2024-05-21T09:00:00:Z","depth":0,"parameterNumber":3,"parameterNumberName":"V-component_of_WINDS"},"data":[0,0,0,0,0,0,0,0,0,0,0,0,0,0,0,0,0,0,0,0,0,0,0,0,0,0,0,0,0,0,0,0,0,0,0,0,0,0,0,0,0,0,0,0,0,0,0,0,0,0,0,0,0,0,0,0,0,0,3.3756,3.3756,0,3.3772,3.3772,3.3772,3.3729,3.3728,3.3726,3.3725,3.374,3.3742,3.3743,0,0,0,0,0,0,0,0,0,0,0,0,0,3.3686,3.3687,3.3756,3.3756,3.3756,3.3772,3.3772,3.3772,3.3729,3.3728,3.3726,3.3725,3.374,3.3742,3.3743,0,0,0,0,0,0,0,0,0,0,0,0,0,3.371,3.3688,3.3756,3.3737,3.3735,3.3772,3.3772,3.3772,3.373,3.3728,3.3726,3.3724,3.3739,3.3741,3.3744,3.3799,0,0,3.3751,3.3752,0,0,0,0,0,0,0,0,3.3709,3.3713,3.3739,3.3738,3.3736,3.3746,3.3753,3.3781,3.373,3.3732,3.3725,3.3723,3.3744,3.3746,3.3753,3.38,3.38,3.3751,3.3753,3.3754,3.3755,0,0,0,0,0,0,0,3.3707,3.3712,3.3762,3.374,3.3738,3.3727,3.3728,3.3758,3.3749,3.3731,3.3728,3.3731,3.3743,3.3751,3.3753,3.38,3.3751,3.3754,3.3755,3.3756,3.389,3.3892,0,0,0,0,0,0,3.3708,3.3711,3.3761,3.3762,3.3718,3.3729,3.3731,3.3745,3.3748,3.3747,3.3733,3.3729,3.3748,3.375,3.3753,3.3816,3.3754,3.3756,3.3758,3.3888,3.3891,3.3893,0,0,0,0,0,0,3.3707,3.3713,3.3761,3.3736,3.3741,3.3733,3.3749,3.3747,3.3755,3.3749,3.3747,3.3743,3.3746,3.375,3.3787,3.3816,3.3757,3.376,3.3886,3.3889,3.3892,3.3943,0,0,0,0,0,0,3.3705,3.3713,3.3735,3.3737,3.3743,3.3795,3.3751,3.3748,3.3759,3.3754,3.3758,3.3757,3.3745,3.3784,3.379,3.3818,3.3762,3.3883,3.3887,3.3891,3.3939,3.3947,3.3955,0,0,0,0,0,3.3703,3.3749,3.3736,3.3742,3.3769,3.3797,3.38,3.3786,3.3762,3.3782,3.3779,3.3757,3.3812,3.3788,3.3794,3.3824,3.3881,3.3886,3.3891,3.3935,3.3946,3.3955,0,0,0,0,0,0,3.375,3.3748,3.3734,3.3782,3.379,3.379,3.3816,3.3798,3.3813,3.3808,3.3789,3.379,3.383,3.3831,3.3804,3.3876,3.3842,3.3849,3.3874,3.3884,3.3892,3.389,3.3764,0,0,0,0,0,3.3766,3.3789,3.3787,3.3829,3.3834,3.3824,3.3836,3.3824,3.3831,3.3834,3.3833,3.3841,3.3859,3.3872,3.3889,3.3939,3.3938,3.3963,3.3971,3.3978,3.3982,3.4006,3.4017,3.3909,3.3909,3.3909,0,0,3.3799,3.3801,3.3817,3.3838,3.3843,3.3866,3.3827,3.3854,3.3871,3.3838,3.3873,3.3873,3.3879,3.3923,3.3942,3.3924,3.4012,3.3984,3.3989,3.399,3.4012,3.4023,3.4032,3.3912,3.3911,3.3911,0,0,3.3871,3.3876,3.391,3.3916,3.3923,3.3916,3.3925,3.3927,3.3925,3.396,3.3936,3.3955,3.3989,3.3994,3.4001,3.4074,3.4053,3.408,3.4122,3.4146,3.4154,3.4161,3.4185,3.4194,3.4085,3.4086,3.4086,0,3.3911,3.3945,3.393,3.3958,3.3968,3.3939,3.3973,3.3979,3.3992,3.3999,3.398,3.402,3.4023,3.4066,3.4083,3.4091,3.4098,3.4079,3.4154,3.4161,3.4168,3.419,3.42,3.4089,3.4088,3.4088,3.4088,0,3.3993,3.4017,3.4044,3.4057,3.4069,3.4101,3.4089,3.4104,3.4091,3.4086,3.412,3.4123,3.4139,3.4149,3.4137,3.419,3.4179,3.4158,3.4123,3.4182,3.4202,3.4211,3.4093,3.4092,3.4091,3.409,0,0,3.4094,3.4097,3.4107,3.4111,3.4117,3.4136,3.4165,3.4181,3.4192,3.4203,3.4225,3.4254,3.4234,3.4242,3.423,3.4251,3.4306,3.4227,3.4227,3.424,3.4362,3.4376,3.4386,3.4293,3.4295,3.4296,3.436,0,3.4163,3.4213,3.4199,3.4249,3.427,3.4243,3.4268,3.4274,3.427,3.4287,3.4282,3.4302,3.4275,3.428,3.43,3.4295,3.433,3.4291,3.4312,3.4313,3.4309,3.4397,3.4413,3.4473,3.4368,3.437,3.4371,0,3.4249,3.4262,3.4313,3.4314,3.4322,3.4345,3.4357,3.4375,3.438,3.4376,3.4384,3.4368,3.4395,3.4362,3.4399,3.4372,3.4381,3.438,3.4382,3.4381,3.4344,3.4397,3.4492,3.45,3.4384,3.4383,3.4382,0,3.4315,3.4345,3.4379,3.4384,3.4386,3.4402,3.4404,3.4407,3.4417,3.4428,3.4434,3.4449,3.4456,3.4467,3.4455,3.4432,3.4493,3.4459,3.4488,3.4488,3.45,3.4499,3.4596,3.451,3.451,3.451,3.4509,0,3.4392,3.4423,3.4408,3.4428,3.4463,3.4447,3.4481,3.448,3.4483,3.4502,3.4481,3.4499,3.4483,3.4499,3.449,3.452,3.4524,3.452,3.4517,3.4521,3.4521,3.4524,3.4519,3.4512,3.4511,3.4511,3.4511,0,3.447,3.4461,3.4495,3.4495,3.4495,3.452,3.4519,3.4537,3.4532,3.4556,3.4561,3.4552,3.457,3.456,3.4579,3.4572,3.4611,3.4603,3.4609,3.4606,3.4635,3.4631,3.4735,3.4747,3.4656,3.4657,3.4657,0,3.4518,3.4542,3.4543,3.4554,3.4557,3.4576,3.4585,3.4571,3.4582,3.4589,3.4606,3.4623,3.4635,3.4665,3.466,3.4674,3.4665,3.47,3.4667,3.4669,3.4662,3.466,3.4661,3.4706,3.4707,3.4708,3.4709,0,3.4605,3.4599,3.4613,3.4626,3.4638,3.4648,3.4656,3.4666,3.4651,3.4665,3.4683,3.4692,3.4711,3.4727,3.4739,3.4739,3.4721,3.472,3.4727,3.473,3.4731,3.4728,3.4625,3.4717,3.4716,3.4716,3.4715,3.4715,3.4668,3.4686,3.469,3.4706,3.4711,3.4718,3.4735,3.4731,3.4746,3.476,3.4751,3.4771,3.4775,3.4789,3.4792,3.4808,3.4793,3.4804,3.4806,3.4809,3.4811,3.4731,3.481,3.481,3.481,3.4809,3.4809,0,3.4751,3.4751,3.4767,3.4778,3.4791,3.4773,3.478,3.4792,3.4811,3.4816,3.4828,3.4848,3.4863,3.4859,3.4872,3.4886,3.4877,3.4889,3.4887,3.4887,3.4825,3.4816,3.4896,3.4896,3.4896,3.4896,3.4896,3.4895,3.4795,3.4825,3.4819,3.4851,3.4851,3.4871,3.4877,3.4883,3.4887,3.491,3.4922,3.4919,3.492,3.4933,3.4946,3.4945,3.4949,3.4964,3.4959,3.49,3.4892,3.4884,3.4875,3.4966,3.4966,3.502,3.502,3.5021]}]]